[[{"header":{"parameterUnit":"m.s-1","parameterCategory":1,"la1":30.2992,"la2":30.254,"lo1":-89.0895,"lo2":-89.0443,"dy":0.0025,"dx":0.0025,"nx":19,"ny":19,"refTime":"2026-04-21T09:00:00:Z","depth":0,"parameterNumber":2,"parameterNumberName":"U-component_of_WINDS"},"data":[0,0,0,-0.7777,-0.7778,-0.7831,-0.7831,-0.7907,-0.7908,0,0,0,0,0,0,0,0,0,0,0,-0.7766,-0.7767,-0.7777,-0.7778,-0.7831,-0.7831,-0.7907,-0.7908,0,0,0,0,0,0,0,0,0,0,0,-0.7766,-0.7767,-0.7768,-0.7779,-0.7831,-0.7831,-0.7907,-0.7864,0,0,0,0,0,0,0,0,0,0,-0.7811,-0.7807,-0.7767,-0.7768,-0.7779,-0.7831,-0.7831,-0.7862,-0.7867,-0.7887,0,-0.7906,0,-0.7908,-0.7913,-0.7914,0,0,0,-0.7775,-0.7803,-0.7812,-0.7768,-0.7779,-0.7831,-0.7806,-0.7864,-0.787,-0.7893,-0.7907,-0.7909,-0.7909,-0.7914,-0.7914,-0.8042,-0.8042,0,0,-0.7772,-0.7779,-0.7808,-0.7816,-0.7808,-0.7805,-0.7808,-0.7868,-0.7883,-0.7907,-0.7911,-0.7911,-0.7915,-0.7915,-0.8041,-0.8042,0,0,0,-0.7766,-0.7777,-0.7785,-0.7813,-0.7822,-0.7806,-0.781,-0.7881,-0.7882,-0.7912,-0.7911,-0.7915,-0.7916,-0.804,-0.8041,-0.8087,0,0,0,-0.7764,-0.7774,-0.7784,-0.7789,-0.7821,-0.7852,-0.7822,-0.7878,-0.7885,-0.7911,-0.7915,-0.7917,-0.8039,-0.8041,-0.8084,-0.8109,0,0,0,-0.7761,-0.7773,-0.7783,-0.7789,-0.7812,-0.7851,-0.7856,-0.788,-0.7885,-0.7914,-0.7917,-0.8039,-0.804,-0.8082,-0.8104,-0.8145,0,0,0,-0.7761,-0.7823,-0.7783,-0.7852,-0.7812,-0.7878,-0.7856,-0.7905,-0.7935,-0.7916,-0.8039,-0.8041,-0.8081,-0.8101,-0.8142,-0.8182,-0.8199,0,0,-0.7843,-0.7833,-0.7873,-0.7839,-0.7915,-0.787,-0.7952,-0.7973,-0.7969,-0.8017,-0.802,-0.8085,-0.8104,-0.8144,-0.8288,-0.8301,0,0,0,-0.7902,-0.7931,-0.7949,-0.7978,-0.7995,-0.8011,-0.8018,-0.8026,-0.8067,-0.7995,-0.811,-0.8121,-0.8144,-0.8163,-0.8175,-0.8195,-0.805,-0.8049,-0.8049,-0.8031,-0.8022,-0.8087,-0.8084,-0.8112,-0.8118,-0.814,-0.8151,-0.8133,-0.816,-0.8176,-0.8264,-0.8286,-0.8295,-0.8316,-0.8194,-0.8194,-0.8195,-0.8195,-0.8153,-0.8193,-0.8167,-0.8221,-0.8211,-0.8256,-0.8263,-0.8249,-0.829,-0.8252,-0.8272,-0.8233,-0.831,-0.8328,-0.8198,-0.8198,-0.8197,-0.8197,-0.8197,-0.8239,-0.8257,-0.8263,-0.8303,-0.8334,-0.8328,-0.8368,-0.8356,-0.8345,-0.8365,-0.8381,-0.838,-0.8379,-0.8373,-0.8373,-0.8373,-0.8374,-0.8374,-0.8374,-0.8326,-0.8332,-0.8368,-0.8389,-0.8405,-0.8425,-0.8429,-0.8445,-0.8459,-0.8448,-0.8448,-0.8429,-0.8318,-0.8292,-0.8379,-0.8378,-0.8377,-0.8377,-0.8377,-0.8457,-0.8425,-0.848,-0.8496,-0.8519,-0.8551,-0.8534,-0.8567,-0.8578,-0.8598,-0.8573,-0.8492,-0.8482,-0.8472,-0.8451,-0.8574,-0.8574,-0.8574,-0.8574,-0.8531,-0.8523,-0.8576,-0.8603,-0.8627,-0.8617,-0.8679,-0.8681,-0.868,-0.8686,-0.8665,-0.8635,-0.8626,-0.862,-0.8608,-0.8588,-0.8743,-0.8743,-0.8743,-0.8612,-0.8606,-0.8661,-0.8658,-0.8675,-0.869,-0.8747,-0.8778,-0.8769,-0.875,-0.869,-0.8683,-0.8633,-0.8618,-0.86,-0.8581,-0.8543,0,0]},{"header":{"parameterUnit":"m.s-1","parameterCategory":1,"la1":30.2992,"la2":30.254,"lo1":-89.0895,"lo2":-89.0443,"dy":0.0025,"dx":0.0025,"nx":19,"ny":19,"refTime":"2026-04-21T09:00:00:Z","depth":0,"parameterNumber":3,"parameterNumberName":"V-component_of_WINDS"},"data":[0,0,0,-3.557,-3.5574,-3.5745,-3.5746,-3.596,-3.5961,0,0,0,0,0,0,0,0,0,0,0,-3.5519,-3.552,-3.557,-3.5574,-3.5745,-3.5746,-3.5959,-3.5961,0,0,0,0,0,0,0,0,0,0,0,-3.5518,-3.552,-3.5522,-3.5575,-3.5745,-3.5746,-3.5959,-3.5831,0,0,0,0,0,0,0,0,0,0,-3.5665,-3.5618,-3.5519,-3.5522,-3.5576,-3.5745,-3.5746,-3.5825,-3.5839,-3.588,0,-3.5919,0,-3.5944,-3.5976,-3.5976,0,0,0,-3.5574,-3.5606,-3.5653,-3.5522,-3.5577,-3.5745,-3.5668,-3.5833,-3.5849,-3.5899,-3.5923,-3.5931,-3.5948,-3.5977,-3.5978,-3.6224,-3.6225,0,0,-3.5565,-3.5548,-3.5642,-3.5663,-3.5639,-3.5662,-3.5673,-3.5842,-3.5866,-3.5923,-3.5936,-3.5951,-3.5978,-3.598,-3.6222,-3.6224,0,0,0,-3.5537,-3.5542,-3.5585,-3.5654,-3.5686,-3.5667,-3.568,-3.5858,-3.5874,-3.5938,-3.5954,-3.598,-3.5982,-3.6221,-3.6223,-3.6264,0,0,0,-3.5532,-3.5526,-3.5581,-3.5573,-3.5683,-3.5775,-3.5692,-3.5862,-3.5882,-3.5952,-3.598,-3.5984,-3.622,-3.6222,-3.6261,-3.6286,0,0,0,-3.5508,-3.5523,-3.5548,-3.5571,-3.5645,-3.5773,-3.5798,-3.5867,-3.5891,-3.5977,-3.5985,-3.6219,-3.6222,-3.6257,-3.628,-3.6345,0,0,0,-3.5477,-3.5582,-3.5548,-3.5672,-3.5643,-3.5798,-3.5797,-3.5912,-3.599,-3.5981,-3.622,-3.6223,-3.6256,-3.6277,-3.6342,-3.6396,-3.6418,0,0,-3.56,-3.5596,-3.567,-3.5645,-3.5802,-3.5773,-3.5935,-3.6021,-3.6042,-3.6161,-3.6167,-3.6262,-3.628,-3.6344,-3.6547,-3.6564,0,0,0,-3.5704,-3.5756,-3.5801,-3.5876,-3.5946,-3.6006,-3.6069,-3.6101,-3.6203,-3.6101,-3.6304,-3.6315,-3.6354,-3.638,-3.6395,-3.6428,-3.6235,-3.6235,-3.6234,-3.5854,-3.5878,-3.6001,-3.6046,-3.6118,-3.6182,-3.6242,-3.6295,-3.6297,-3.6345,-3.6379,-3.65,-3.6531,-3.6542,-3.6576,-3.6411,-3.6412,-3.6412,-3.6412,-3.6036,-3.6114,-3.6116,-3.6235,-3.6259,-3.6359,-3.6425,-3.6423,-3.6518,-3.6476,-3.6511,-3.6461,-3.656,-3.6591,-3.6415,-3.6415,-3.6414,-3.6414,-3.6414,-3.6137,-3.6178,-3.6216,-3.6326,-3.6408,-3.6448,-3.654,-3.6558,-3.6576,-3.6611,-3.6648,-3.6648,-3.6648,-3.6628,-3.6628,-3.6629,-3.6629,-3.6629,-3.663,-3.6225,-3.6267,-3.6343,-3.6426,-3.6476,-3.6543,-3.6609,-3.6658,-3.6716,-3.6722,-3.6722,-3.6718,-3.6566,-3.6527,-3.6636,-3.6635,-3.6634,-3.6633,-3.6633,-3.6398,-3.6362,-3.648,-3.653,-3.6628,-3.6707,-3.673,-3.6828,-3.6871,-3.6915,-3.6904,-3.6789,-3.6785,-3.6774,-3.6741,-3.69,-3.69,-3.69,-3.69,-3.6482,-3.6482,-3.6606,-3.6685,-3.6765,-3.6797,-3.6927,-3.6978,-3.7025,-3.7053,-3.7033,-3.6992,-3.6979,-3.6983,-3.6967,-3.6936,-3.7141,-3.7141,-3.7141,-3.6589,-3.6598,-3.6706,-3.6754,-3.6832,-3.6897,-3.7019,-3.7108,-3.7154,-3.7152,-3.7074,-3.7064,-3.6998,-3.6975,-3.697,-3.6944,-3.6889,0,0]}]]